Weather History for Windom, MN

Change the Weather History Date:

Tuesday, September 3, 2013

  Actual Average Record
Temperature  
Mean Temperature 62 °F -  
Max Temperature 80 °F 79 °F 132 °F (1998)
Min Temperature 44 °F 55 °F 30 °F (1974)
Degree Days  
Heating Degree Days 3    
Growing Degree Days 12 (Base 50)    
Moisture  
Dew Point 55 °F    
Average Humidity 75    
Maximum Humidity 100    
Minimum Humidity 42    
Precipitation  
Precipitation 0.00 in - - ()
Sea Level Pressure  
Sea Level Pressure 30.07 in    
Wind  
Wind Speed 3 mph (South)    
Max Wind Speed 10 mph    
Max Gust Speed -    
Visibility 10 miles    
Events      
Averages and records for this station are not official NWS values.
T = Trace of Precipitation, MM = Missing Value Source: NWS Daily Summary

Daily Weather History Graph

Daily Weather History Graph

Search for Another Location

Airport:

Trip Planner

Search our weather history database for the weather conditions in past years. The results will help you decide how hot, cold, wet, or windy it might be!

Date:

Astronomy

Sep. 03, 2013 Rise Set
Actual Time 6:46 AM CDT 7:52 PM CDT
Civil Twilight 6:16 AM CDT 8:21 PM CDT
Nautical Twilight 5:41 AM CDT 8:56 PM CDT
Astronomical Twilight 5:04 AM CDT 9:33 PM CDT
Moon 4:59 AM CDT (9/3) 6:40 PM CDT (9/3)
Length of Visible Light 14h 04m
Length of Day
13h 05m
Waning Crescent, 3% of the Moon is Illuminated
Sep 3
Waning Crescent
Sep 5
New
Sep 12
First Quarter
Sep 19
Full
Sep 26
Last Quarter

Hourly Weather History & Observations

Time (CDT) Temp. Heat Index Dew Point Humidity Pressure Visibility Wind Dir Wind Speed Gust Speed Precip Events Conditions
12:12 AM 51.8 °F - 50.0 °F 94% 30.07 in 10.0 mi Calm Calm - N/A   Clear
12:33 AM 51.8 °F - 50.0 °F 94% 30.07 in 10.0 mi ESE 3.5 mph - N/A   Clear
12:52 AM 53.6 °F - 50.0 °F 88% 30.08 in 10.0 mi Calm Calm - N/A   Clear
1:12 AM 51.8 °F - 48.2 °F 88% 30.07 in 10.0 mi Calm Calm - N/A   Clear
1:33 AM 51.8 °F - 48.2 °F 88% 30.07 in 10.0 mi Calm Calm - N/A   Clear
1:52 AM 51.8 °F - 50.0 °F 94% 30.07 in - Calm Calm - N/A   Clear
2:12 AM 50.0 °F - 48.2 °F 94% 30.07 in 10.0 mi SE 3.5 mph - N/A   Clear
2:33 AM 48.2 °F - 48.2 °F 100% 30.07 in 10.0 mi Calm Calm - N/A   Clear
2:52 AM 48.2 °F - 46.4 °F 93% 30.07 in 10.0 mi Calm Calm - N/A   Clear
3:12 AM 50.0 °F - 48.2 °F 94% 30.08 in 10.0 mi Calm Calm - N/A   Clear
3:33 AM 50.0 °F - 48.2 °F 94% 30.08 in 10.0 mi SSE 5.8 mph - N/A   Clear
3:52 AM 51.8 °F - 48.2 °F 88% 30.08 in 10.0 mi SSE 5.8 mph - N/A   Clear
4:12 AM 51.8 °F - 50.0 °F 94% 30.08 in 10.0 mi South 3.5 mph - N/A   Clear
4:32 AM 51.8 °F - 48.2 °F 88% 30.08 in 10.0 mi Calm Calm - N/A   Clear
4:52 AM 51.8 °F - 48.2 °F 88% 30.09 in 10.0 mi Calm Calm - N/A   Clear
5:13 AM 51.8 °F - 48.2 °F 88% 30.09 in 10.0 mi Calm Calm - N/A   Clear
5:32 AM 50.0 °F - 48.2 °F 94% 30.09 in 10.0 mi Calm Calm - N/A   Clear
5:52 AM 48.2 °F - 46.4 °F 93% 30.10 in 10.0 mi Calm Calm - N/A   Clear
6:12 AM 48.2 °F - 48.2 °F 100% 30.09 in 10.0 mi Calm Calm - N/A   Clear
6:32 AM 46.4 °F - 44.6 °F 93% 30.10 in 7.0 mi Calm Calm - N/A   Clear
6:53 AM 44.6 °F - 44.6 °F 100% 30.11 in 1.5 mi Calm Calm - N/A   Mist
7:12 AM 46.4 °F - 46.4 °F 100% 30.11 in 4.0 mi Calm Calm - N/A   Clear
7:32 AM 46.4 °F - 46.4 °F 100% 30.10 in 10.0 mi Calm Calm - N/A   Clear
7:53 AM 53.6 °F - 51.8 °F 94% 30.11 in 10.0 mi South 4.6 mph - N/A   Clear
8:12 AM 55.4 °F - 51.8 °F 88% 30.11 in 10.0 mi South 6.9 mph - N/A   Clear
8:32 AM 55.4 °F - 53.6 °F 94% 30.10 in 10.0 mi South 5.8 mph - N/A   Clear
8:53 AM 57.2 °F - 53.6 °F 88% 30.10 in 10.0 mi South 5.8 mph - N/A   Clear
9:12 AM 60.8 °F - 53.6 °F 77% 30.10 in 10.0 mi South 6.9 mph - N/A   Clear
9:32 AM 62.6 °F - 55.4 °F 77% 30.10 in 10.0 mi South 5.8 mph - N/A   Clear
9:53 AM 64.4 °F - 55.4 °F 73% 30.10 in 10.0 mi SSW 8.1 mph - N/A   Clear
10:12 AM 64.4 °F - 55.4 °F 73% 30.10 in 10.0 mi South 5.8 mph - N/A   Clear
10:32 AM 66.2 °F - 55.4 °F 68% 30.10 in 10.0 mi SSW 10.4 mph - N/A   Clear
10:53 AM 69.8 °F - 55.4 °F 60% 30.09 in 10.0 mi South 6.9 mph - N/A   Clear
11:12 AM 71.6 °F - 55.4 °F 57% 30.09 in 10.0 mi South 5.8 mph - N/A   Clear
11:32 AM 71.6 °F - 55.4 °F 57% 30.09 in 10.0 mi SSW 8.1 mph - N/A   Clear
11:53 AM 73.4 °F - 55.4 °F 53% 30.08 in 10.0 mi SSE 6.9 mph - N/A   Clear
12:12 PM 75.2 °F - 55.4 °F 50% 30.08 in 10.0 mi South 5.8 mph - N/A   Clear
12:32 PM 75.2 °F - 55.4 °F 50% 30.07 in 10.0 mi SSW 5.8 mph - N/A   Clear
12:53 PM 75.2 °F - 55.4 °F 50% 30.08 in 10.0 mi South 5.8 mph - N/A   Clear
1:12 PM 77.0 °F - 55.4 °F 47% 30.07 in 10.0 mi SSW 8.1 mph - N/A   Clear
1:32 PM 78.8 °F - 55.4 °F 44% 30.06 in 10.0 mi SSW 6.9 mph - N/A   Clear
1:53 PM 78.8 °F - 55.4 °F 44% 30.06 in 10.0 mi South 5.8 mph - N/A   Clear
2:12 PM 78.8 °F - 55.4 °F 44% 30.06 in 10.0 mi SSW 6.9 mph - N/A   Clear
2:32 PM 80.6 °F 80.5 °F 55.4 °F 42% 30.06 in 10.0 mi South 4.6 mph - N/A   Clear
2:53 PM 80.6 °F 80.5 °F 55.4 °F 42% 30.05 in 10.0 mi South 8.1 mph - N/A   Clear
3:12 PM 80.6 °F 80.5 °F 55.4 °F 42% 30.04 in 10.0 mi South 8.1 mph - N/A   Clear
3:32 PM 78.8 °F - 57.2 °F 47% 30.04 in 10.0 mi SSW 6.9 mph - N/A   Clear
3:53 PM 78.8 °F - 57.2 °F 47% 30.03 in 10.0 mi South 5.8 mph - N/A   Clear
4:12 PM 80.6 °F 80.8 °F 57.2 °F 45% 30.03 in 10.0 mi SW 6.9 mph - N/A   Clear
4:32 PM 80.6 °F 80.8 °F 57.2 °F 45% 30.03 in 10.0 mi South 5.8 mph - N/A   Clear
4:53 PM 80.6 °F 81.1 °F 59.0 °F 48% 30.02 in 10.0 mi SSW 6.9 mph - N/A   Clear
5:12 PM 80.6 °F 81.5 °F 60.8 °F 51% 30.02 in 10.0 mi SSW 8.1 mph - N/A   Clear
5:32 PM 78.8 °F - 60.8 °F 54% 30.03 in 10.0 mi SSW 6.9 mph - N/A   Clear
5:52 PM 78.8 °F - 60.8 °F 54% 30.02 in 10.0 mi South 4.6 mph - N/A   Clear
6:12 PM 77.0 °F - 62.6 °F 61% 30.02 in 10.0 mi SSW 3.5 mph - N/A   Clear
6:32 PM 77.0 °F - 62.6 °F 61% 30.03 in 10.0 mi South 3.5 mph - N/A   Clear
6:52 PM 77.0 °F - 62.6 °F 61% 30.03 in 10.0 mi Calm Calm - N/A   Clear
7:12 PM 75.2 °F - 62.6 °F 65% 30.02 in 10.0 mi Calm Calm - N/A   Clear
7:32 PM 75.2 °F - 62.6 °F 65% 30.02 in 10.0 mi Calm Calm - N/A   Clear
7:52 PM 73.4 °F - 62.6 °F 69% 30.03 in 10.0 mi Calm Calm - N/A   Clear
8:12 PM 71.6 °F - 62.6 °F 73% 30.03 in 10.0 mi ESE 3.5 mph - N/A   Clear
8:32 PM 71.6 °F - 62.6 °F 73% 30.03 in 10.0 mi Calm Calm - N/A   Clear
8:52 PM 66.2 °F - 60.8 °F 83% 30.04 in 10.0 mi ENE 3.5 mph - N/A   Clear
9:12 PM 66.2 °F - 62.6 °F 88% 30.04 in 10.0 mi South 3.5 mph - N/A   Clear
9:32 PM 66.2 °F - 62.6 °F 88% 30.04 in 10.0 mi Calm Calm - N/A   Clear
9:52 PM 64.4 °F - 62.6 °F 94% 30.04 in 10.0 mi Calm Calm - N/A   Clear
10:12 PM 64.4 °F - 62.6 °F 94% 30.05 in 10.0 mi Calm Calm - N/A   Clear
10:32 PM 64.4 °F - 62.6 °F 94% 30.04 in 10.0 mi South 3.5 mph - N/A   Clear
10:52 PM 64.4 °F - 60.8 °F 88% 30.05 in 10.0 mi Calm Calm - N/A   Clear
11:12 PM 62.6 °F - 60.8 °F 94% 30.05 in 10.0 mi Calm Calm - N/A   Clear
11:32 PM 62.6 °F - 59.0 °F 88% 30.05 in 10.0 mi Calm Calm - N/A   Clear
11:52 PM 60.8 °F - 59.0 °F 94% 30.05 in 10.0 mi Calm Calm - N/A   Clear